This is the latest recevied weather packets stored in our database for station/object DJ0JJ-11. If no packets are shown the sender has not sent any weather packets the latest 10 day(s).
| Time | Temp. | Humidity | Pressure | Rain* | Wind** | Luminosity | Snow |
|---|---|---|---|---|---|---|---|
| 1787517325 | 18.33° C | 55% | 1023.7 hPa | - | - | - | - |
| 1787516425 | 18.33° C | 56% | 1023.8 hPa | - | - | - | - |
| 1787515525 | 18.89° C | 55% | 1023.6 hPa | - | - | - | - |
| 1787514629 | 18.89° C | 55% | 1023.6 hPa | - | - | - | - |
| 1787513729 | 19.44° C | 53% | 1023.4 hPa | - | - | - | - |
| 1787512829 | 20° C | 52% | 1023.4 hPa | - | - | - | - |
| 1787511928 | 20° C | 51% | 1023.4 hPa | - | - | - | - |
| 1787511028 | 20° C | 51% | 1023.2 hPa | - | - | - | - |
| 1787510128 | 20.56° C | 51% | 1023 hPa | - | - | - | - |
| 1787509227 | 21.11° C | 49% | 1022.9 hPa | - | - | - | - |
| 1787508327 | 21.11° C | 48% | 1022.9 hPa | - | - | - | - |
| 1787507427 | 22.22° C | 47% | 1023.1 hPa | - | - | - | - |
| 1787506527 | 22.78° C | 45% | 1023.1 hPa | - | - | - | - |
| 1787505627 | 22.78° C | 45% | 1023 hPa | - | - | - | - |
| 1787504727 | 23.33° C | 44% | 1023.3 hPa | - | - | - | - |
| 1787503827 | 23.33° C | 45% | 1023.3 hPa | - | - | - | - |
| 1787502927 | 23.33° C | 44% | 1023.2 hPa | - | - | - | - |
| 1787502027 | 23.33° C | 44% | 1023.4 hPa | - | - | - | - |
| 1787501127 | 23.89° C | 44% | 1023.4 hPa | - | - | - | - |
| 1787500226 | 23.33° C | 45% | 1023.5 hPa | - | - | - | - |
| 1787499326 | 23.89° C | 44% | 1023.4 hPa | - | - | - | - |
| 1787498426 | 23.33° C | 44% | 1023.4 hPa | - | - | - | - |
| 1787497525 | 23.33° C | 44% | 1023.5 hPa | - | - | - | - |
| 1787496625 | 23.33° C | 45% | 1023.6 hPa | - | - | - | - |
| 1787495725 | 23.33° C | 46% | 1023.6 hPa | - | - | - | - |
* Rain since midnight (hover to see other rain measurements)
** Current wind speed in m/s (hover to see current wind gust speed)